GFSNIL_sfc_temp_000.txt.gz
Temp
48 46 46 46 45 44 44 44 44 43 43 43 43 42 41 40 39 40 37 37 37 37
46 46 45 44 44 43 44 48 43 43 42 41 41 41 40 38 38 38 37 36 36 35
45 45 44 44 43 43 43 43 42 42 41 40 40 40 39 37 38 37 37 39 35 35
43 43 43 43 42 42 42 42 41 41 40 39 39 39 37 37 37 37 36 35 35 34
43 42 42 41 41 42 41 41 40 40 40 39 39 38 36 36 36 35 34 34 33 33
41 41 40 40 41 41 41 40 40 40 39 39 38 37 37 36 35 35 34 33 32 32
40 40 40 40 40 41 40 39 39 39 38 37 37 37 37 37 35 34 35 34 33 32
39 40 40 40 40 40 39 39 38 37 36 36 37 42 40 39 36 34 32 32 33 34
40 40 40 40 39 38 38 36 36 34 34 33 39 43 45 43 38 34 32 30 32 33
40 40 39 39 38 36 35 34 33 33 32 32 32 43 43 43 38 33 32 31 32 33
40 39 38 37 35 34 33 33 32 32 31 30 35 41 42 41 34 31 30 31 31 31
39 38 36 34 33 33 32 31 30 31 30 29 30 39 40 39 33 32 31 31 31 32
37 35 34 32 32 32 30 30 31 31 30 33 29 36 39 38 34 30 30 31 32 36
35 34 33 31 30 29 29 29 28 28 28 28 29 29 38 39 35 33 32 31 31 32

GFSNIL_sfc_temp_003.txt.gz
Temp
48 47 45 45 44 43 43 43 43 42 42 41 41 40 39 38 37 38 35 35 34 35
45 45 44 43 43 43 42 46 42 41 41 40 40 39 38 37 36 36 35 34 34 33
44 44 43 43 42 42 42 42 41 40 39 39 38 38 37 36 36 35 35 37 33 33
42 43 42 42 41 41 41 41 40 39 39 38 37 37 36 35 36 35 34 34 33 33
42 42 41 41 40 41 40 40 39 38 38 37 37 36 35 34 34 34 33 33 32 32
40 40 40 40 40 40 39 38 38 37 36 36 36 35 35 35 34 33 33 32 31 31
39 39 39 39 39 39 38 37 36 36 36 35 35 35 36 35 34 33 34 33 32 31
39 39 39 39 38 38 37 36 35 36 34 33 35 40 38 36 34 32 31 31 31 33
39 39 39 38 37 36 35 35 34 33 32 32 38 42 44 41 34 31 30 29 31 31
39 39 37 37 36 35 33 32 32 31 31 30 30 42 43 42 33 30 29 31 30 31
39 38 37 35 33 32 31 31 30 31 30 29 32 40 41 41 31 29 29 30 29 29
38 36 34 32 31 31 30 29 30 30 29 27 28 38 39 38 30 29 29 30 30 30
35 34 32 30 29 29 29 30 30 29 28 31 28 35 39 38 33 28 30 30 30 36
33 32 30 29 28 28 27 27 26 27 26 26 28 29 38 39 35 32 32 31 32 31

GFSNIL_sfc_temp_006.txt.gz
Temp
48 48 45 43 43 43 42 41 41 41 40 40 40 39 37 36 36 36 34 33 33 33
45 45 44 43 42 41 41 44 40 40 39 39 38 38 36 35 35 34 34 33 33 32
43 43 42 42 41 41 40 40 40 39 38 38 37 36 35 34 35 34 34 36 33 32
42 42 41 40 40 40 39 39 39 38 38 37 36 35 34 33 35 34 33 33 32 32
42 41 40 39 39 39 38 38 38 37 37 36 35 34 33 34 34 32 32 32 31 31
40 39 38 38 38 38 38 37 37 36 35 34 34 34 34 33 33 32 32 31 30 30
38 38 37 38 38 37 37 36 35 35 34 34 34 34 35 34 32 31 31 31 30 30
37 37 37 37 36 36 36 35 34 34 33 32 34 39 36 35 33 30 29 29 30 31
37 37 36 36 35 36 34 33 33 31 31 30 36 40 43 41 32 30 29 27 29 29
37 37 35 35 35 34 32 30 30 29 29 28 29 40 42 42 33 30 28 30 30 31
37 35 35 34 33 31 29 29 28 28 28 27 31 39 40 40 31 29 28 30 29 28
36 34 33 31 30 29 28 27 27 28 27 26 27 37 39 38 30 30 29 30 29 29
35 33 30 29 28 27 26 28 29 29 27 30 26 34 38 37 32 28 30 30 30 36
31 29 28 27 26 25 25 26 24 26 25 25 27 28 37 38 34 32 32 31 31 31

GFSNIL_sfc_temp_009.txt.gz
Temp
56 54 54 52 52 52 51 50 49 48 49 48 48 47 47 46 46 45 45 43 43 43
53 53 51 51 51 50 49 49 48 48 47 47 47 46 45 46 45 45 44 44 43 42
52 52 50 50 49 49 48 48 47 47 46 46 45 45 45 44 44 44 44 44 42 42
49 49 49 49 48 47 47 47 46 46 45 45 44 44 44 43 43 42 42 42 40 40
48 47 47 46 46 47 46 46 45 44 44 43 43 43 42 42 42 41 40 39 38 38
46 46 45 45 45 45 44 44 43 43 42 42 41 42 42 42 41 40 39 38 37 37
45 45 44 44 43 43 43 42 42 42 41 40 40 41 41 41 41 40 39 38 37 37
43 43 43 42 42 41 42 41 41 40 39 39 40 42 42 42 41 39 37 37 37 38
42 42 41 41 40 40 39 39 39 38 37 37 39 40 43 43 41 39 37 36 37 37
41 40 39 40 39 38 38 38 37 37 36 36 36 40 41 42 40 38 37 37 37 36
40 39 38 38 38 37 37 36 36 35 35 34 36 39 40 40 39 38 37 37 36 35
39 38 37 36 36 35 36 35 34 35 34 33 34 37 38 39 38 37 36 37 37 36
38 37 36 35 35 34 34 34 35 34 33 33 33 35 37 38 37 35 35 37 37 37
36 34 34 33 33 32 32 32 31 32 33 33 33 34 37 38 37 36 35 35 35 36

GFSNIL_sfc_temp_012.txt.gz
Temp
58 59 60 61 63 63 61 60 59 58 58 57 56 55 55 55 54 54 53 50 50 50
59 60 60 60 63 62 61 58 58 57 56 56 55 54 54 55 54 52 52 51 50 49
59 61 59 61 60 59 58 57 56 56 55 54 54 54 53 53 52 51 52 50 49 48
55 57 58 60 59 58 57 56 55 55 54 53 53 53 53 52 51 49 49 48 46 45
55 58 59 58 57 57 55 55 54 53 53 52 51 51 51 50 49 48 46 46 44 43
58 58 57 55 55 55 54 53 52 52 51 50 49 49 49 49 48 48 46 45 44 43
56 56 55 54 53 52 52 51 51 50 49 48 48 47 47 47 47 47 46 45 44 43
54 53 52 51 51 50 50 49 49 48 47 47 47 47 45 47 47 46 45 45 44 43
50 50 49 49 49 48 47 47 47 46 46 45 46 40 42 43 45 45 43 42 43 43
49 47 48 48 48 46 46 46 45 45 45 44 44 40 41 41 43 43 42 41 41 41
47 46 47 47 45 45 46 45 45 44 43 42 42 38 40 40 43 43 42 41 41 41
47 45 45 44 44 44 44 44 44 43 42 41 42 38 38 39 41 41 41 42 42 41
47 45 44 43 43 42 44 42 43 41 42 38 40 39 37 39 40 39 40 41 41 40
45 44 44 43 43 42 42 41 41 40 41 40 39 39 38 38 39 39 38 38 38 39

GFSNIL_sfc_temp_015.txt.gz
Temp
65 63 60 59 58 59 59 61 60 60 60 59 58 57 56 55 54 54 53 51 51 50
63 61 60 60 60 61 62 61 60 59 58 58 57 57 56 55 54 53 52 51 51 50
59 59 61 61 61 60 60 60 58 58 57 56 56 56 55 54 54 52 52 51 49 49
57 59 59 59 59 58 60 58 57 56 56 55 55 55 54 53 52 51 50 50 48 46
57 57 58 58 59 59 58 58 56 56 55 54 53 53 52 51 52 50 48 48 46 44
55 56 56 57 57 58 56 55 55 54 53 52 51 51 51 51 50 49 48 47 46 44
54 55 55 55 56 55 54 53 53 52 51 50 49 49 49 49 48 48 48 47 46 45
54 55 55 54 53 53 53 52 51 50 49 48 48 49 44 46 46 46 46 46 46 45
53 53 51 51 50 50 49 49 48 48 47 46 47 41 42 43 42 44 44 43 43 44
50 49 49 49 49 48 48 48 47 46 46 45 45 41 41 42 41 42 42 41 40 41
49 47 48 48 47 47 47 46 46 45 45 44 44 39 40 40 40 42 42 41 42 41
48 47 47 46 46 46 45 45 44 44 43 43 43 40 39 39 39 40 40 42 42 41
49 47 45 45 44 44 44 43 43 42 43 42 40 42 39 39 38 37 39 40 40 42
46 45 45 44 44 44 42 42 42 41 43 42 42 40 40 39 37 37 36 36 37 38

GFSNIL_sfc_temp_018.txt.gz
Temp
59 55 53 53 53 55 56 56 57 55 50 49 49 48 48 46 45 45 43 43 42 42
57 55 54 52 56 57 57 57 56 54 49 48 48 48 47 45 45 44 43 42 41 41
57 55 55 57 58 58 57 56 54 51 48 48 48 48 47 45 46 44 43 43 41 40
55 57 59 59 58 56 56 55 53 48 47 47 47 47 46 45 46 44 43 42 41 40
58 58 58 56 56 56 55 54 53 48 48 47 47 46 46 44 44 43 41 41 39 38
56 56 55 54 55 55 53 51 47 47 47 46 46 46 45 44 43 42 41 40 38 38
54 54 53 53 53 52 51 50 46 45 45 45 46 46 44 43 41 40 40 40 39 38
53 52 52 51 50 50 49 45 45 44 44 45 45 45 40 40 39 37 37 38 39 39
50 50 48 49 47 47 44 42 45 44 42 42 46 43 43 41 37 36 35 34 36 37
45 43 44 46 44 42 42 43 42 41 41 42 39 42 42 42 36 34 33 33 34 35
40 40 44 44 43 43 42 41 40 40 42 40 41 41 40 41 34 33 33 33 34 33
41 41 42 42 40 41 40 40 41 40 39 37 35 41 40 38 32 31 31 34 34 35
42 43 40 40 38 40 41 39 39 37 36 39 34 42 41 38 33 28 29 31 33 39
42 41 41 41 41 37 35 35 34 34 35 35 35 34 41 40 33 30 30 30 30 31

GFSNIL_sfc_temp_021.txt.gz
Temp
58 53 52 54 56 56 57 56 56 54 53 52 51 46 45 43 43 43 41 41 41 40
56 52 52 52 55 58 57 56 56 54 52 51 50 46 45 43 43 42 41 41 40 39
53 53 52 53 56 55 55 57 54 52 51 50 49 45 44 42 43 42 41 41 40 39
54 54 55 55 55 55 56 54 52 51 50 49 46 44 43 43 43 42 41 40 39 39
55 56 56 56 56 56 54 53 52 51 50 48 45 44 43 43 42 41 41 40 38 38
55 55 56 55 54 54 53 52 51 50 48 47 43 43 42 42 42 42 40 39 37 37
53 54 53 53 52 52 51 50 49 48 46 44 43 43 42 42 40 39 38 38 37 36
51 51 50 50 49 50 49 48 47 45 44 42 42 44 41 40 38 37 36 37 37 37
48 48 47 46 46 44 46 45 44 43 41 41 45 44 44 40 37 37 34 32 33 34
45 43 43 42 42 42 41 42 42 41 41 39 40 43 43 42 36 33 31 32 32 34
40 39 39 39 37 37 38 38 38 39 39 38 41 42 41 40 31 31 31 31 31 30
39 37 36 35 35 36 36 37 38 38 39 36 35 41 41 36 31 31 30 32 32 32
38 37 37 38 39 38 38 38 40 36 34 39 32 42 41 37 32 28 29 30 31 36
39 39 39 38 39 39 37 35 32 32 31 31 33 33 41 41 32 30 29 29 30 31

GFSNIL_sfc_temp_024.txt.gz
Temp
60 57 56 55 54 54 54 52 53 54 53 52 51 49 48 45 45 42 40 40 40 39
55 53 52 53 53 53 54 54 54 54 52 51 50 49 48 46 44 41 39 39 39 39
53 53 52 52 53 54 55 55 54 52 51 50 49 48 47 45 44 41 39 39 38 38
50 50 51 52 53 53 55 54 52 52 50 49 48 47 46 45 44 41 39 39 39 39
50 50 50 51 52 54 53 53 52 51 50 48 47 46 45 44 44 40 39 39 38 38
49 50 50 51 52 54 52 51 50 50 49 48 46 45 44 44 40 39 39 39 39 39
50 50 52 51 53 51 51 49 48 46 45 45 44 44 43 39 37 37 38 40 38 37
49 50 50 49 49 49 48 47 45 42 42 41 41 42 40 38 37 38 38 38 37 37
47 47 45 45 43 42 41 40 40 40 41 40 44 45 44 40 38 37 35 35 33 33
43 41 41 41 41 39 37 38 38 38 40 40 41 44 43 41 36 34 32 31 31 33
40 40 40 38 36 35 36 36 35 35 36 37 40 42 42 39 32 30 29 30 29 29
40 38 37 35 34 35 34 33 33 35 36 37 38 42 41 35 30 30 29 30 30 31
39 37 36 35 35 34 33 35 38 37 37 38 32 42 41 35 31 28 29 29 30 35
37 36 35 35 36 36 37 36 34 31 30 31 31 31 42 41 31 30 29 29 29 30

GFSNIL_sfc_temp_027.txt.gz
Temp
60 58 57 55 56 55 55 55 52 52 51 50 50 49 50 47 44 46 44 43 43 38
59 55 55 55 55 55 54 52 51 51 49 50 51 49 48 47 44 45 42 42 42 38
56 54 53 51 51 52 51 52 50 50 49 50 49 49 48 46 45 43 42 42 41 39
50 51 50 50 51 51 51 51 50 50 50 50 48 48 46 45 44 43 42 41 39 40
48 48 48 49 50 50 50 51 50 51 51 49 48 47 45 44 43 42 41 40 39 39
46 47 47 47 48 50 49 50 50 51 48 46 45 44 43 41 41 42 41 40 39 38
45 46 47 50 50 50 50 49 48 47 44 43 42 40 39 39 38 38 39 39 38 38
47 48 50 49 48 48 46 43 42 41 40 40 40 41 39 39 38 38 38 38 38 37
46 46 44 43 42 42 42 41 40 39 38 38 40 40 40 39 38 37 36 35 34 33
42 41 41 41 41 39 38 38 36 36 36 37 40 43 42 40 36 35 34 34 33 33
40 38 38 38 37 36 36 35 34 33 33 33 35 38 36 36 34 33 31 32 29 28
39 38 37 35 34 35 34 34 33 33 33 33 34 39 39 36 32 31 30 31 29 30
38 36 35 35 35 35 34 32 34 32 32 35 34 42 42 36 31 28 29 29 30 35
37 36 36 35 34 33 33 33 33 32 31 31 33 31 42 41 31 31 30 29 29 30

GFSNIL_sfc_temp_030.txt.gz
Temp
62 60 59 57 58 57 56 56 56 53 53 52 50 49 50 49 47 47 45 45 44 42
57 56 56 56 57 57 56 56 51 52 52 50 50 49 50 47 46 45 43 43 43 42
55 58 54 52 53 53 52 51 51 50 50 49 48 48 49 47 46 45 41 42 42 41
52 56 52 50 49 48 49 49 49 49 49 48 48 49 48 46 45 44 43 42 41 40
55 49 49 51 49 48 47 48 49 48 48 48 48 48 46 45 43 41 40 39 38 38
50 49 48 49 50 50 50 49 49 50 49 47 46 45 44 43 42 41 39 39 38 39
48 48 48 49 50 49 49 49 48 47 46 45 44 42 41 39 38 37 37 37 36 37
46 48 48 48 48 47 46 44 44 43 42 41 41 41 38 38 37 36 35 36 36 36
43 44 44 43 42 42 42 41 41 41 40 40 40 42 41 38 35 35 33 31 31 33
40 40 40 41 40 39 38 38 38 39 38 38 39 41 39 37 33 31 30 31 33 35
39 39 39 38 37 36 36 36 35 34 35 35 38 39 38 35 31 30 30 32 31 30
39 37 36 35 34 34 33 33 33 34 33 33 33 37 36 33 33 33 32 32 31 31
36 35 33 33 32 33 33 32 33 32 33 36 33 37 36 35 33 30 30 29 31 35
36 35 34 33 34 33 32 31 30 30 31 31 33 35 42 40 31 30 29 29 29 30

GFSNIL_sfc_temp_033.txt.gz
Temp
61 64 65 64 64 64 63 62 64 61 61 60 59 57 56 54 54 53 51 50 48 47
59 60 62 62 63 64 64 62 62 60 59 58 57 56 54 53 52 51 49 47 46 47
57 58 60 59 60 61 61 60 57 57 57 56 55 54 53 50 49 48 47 45 43 42
55 56 58 56 56 57 57 56 55 55 54 53 52 52 51 50 47 44 45 44 43 42
54 56 53 53 53 53 52 52 52 51 51 51 51 50 49 47 46 44 42 41 39 38
52 52 51 51 51 52 51 51 51 51 49 49 49 48 48 45 44 42 41 39 38 38
50 51 51 51 50 50 50 50 51 51 49 47 46 45 44 42 41 39 38 37 37 36
48 49 48 46 46 47 47 46 46 45 43 42 42 42 40 39 38 36 35 35 35 34
44 44 43 43 42 42 42 42 42 41 41 40 41 43 42 38 36 35 33 32 32 32
42 40 40 41 40 39 39 39 39 39 40 39 40 42 41 38 34 32 32 31 31 32
39 38 38 38 37 37 37 36 36 36 36 37 39 41 39 37 32 31 31 31 31 31
38 36 36 34 34 35 34 34 33 33 33 33 34 38 37 33 32 31 30 31 34 34
36 35 33 33 33 34 34 32 34 32 32 35 34 37 35 33 36 33 34 35 35 35
35 34 33 33 33 32 32 32 31 30 31 32 34 36 40 38 35 35 34 33 34 35

GFSNIL_sfc_temp_036.txt.gz
Temp
70 70 71 71 71 73 74 72 70 67 67 68 69 68 66 63 60 60 58 58 56 54
69 68 68 70 70 69 72 72 72 69 67 66 66 66 64 62 60 59 59 57 54 51
65 66 66 68 66 64 69 69 67 67 66 64 62 60 59 58 59 57 53 53 49 46
64 65 63 61 59 59 61 62 62 63 63 62 59 57 55 54 53 52 48 45 43 40
63 63 60 57 58 59 58 59 58 58 57 58 57 56 53 52 51 49 47 46 45 45
60 60 60 57 58 58 56 55 54 54 53 54 54 53 52 50 48 45 44 41 42 39
55 56 57 57 56 55 55 54 53 53 52 51 51 50 47 45 42 41 40 39 39 39
52 53 53 52 51 51 50 50 49 46 45 45 45 44 42 41 39 38 37 37 36 35
49 49 46 48 47 47 46 46 43 42 42 42 42 43 42 40 38 37 36 33 33 33
45 44 42 42 42 40 40 40 40 40 41 40 41 43 41 39 35 33 32 32 32 33
42 40 39 38 37 36 36 36 36 36 38 38 40 42 40 37 33 32 32 32 34 34
39 37 36 35 35 35 34 34 33 34 34 33 34 38 36 33 32 32 32 35 36 37
37 35 34 34 33 34 34 33 34 32 32 35 33 35 36 38 36 35 37 38 38 36
37 36 35 34 34 34 34 33 32 32 33 35 37 38 39 39 40 39 38 37 38 39

GFSNIL_sfc_temp_039.txt.gz
Temp
71 71 71 72 73 74 75 76 76 69 66 66 66 66 66 64 64 63 60 60 57 55
69 69 68 70 71 73 74 73 74 74 69 65 65 65 63 62 61 59 58 57 56 55
67 68 68 68 68 68 68 69 70 67 65 63 63 62 61 59 58 57 56 55 54 52
65 66 66 64 63 61 61 61 61 61 60 61 60 59 56 55 55 54 53 50 48 44
63 64 64 62 60 59 59 59 58 58 57 57 57 56 54 52 50 50 47 46 43 41
59 60 60 59 60 60 59 58 57 56 54 53 53 52 52 50 48 47 45 44 43 40
55 55 56 56 56 56 56 55 54 53 51 51 49 48 46 44 43 41 41 40 40 39
53 52 52 52 51 51 51 50 51 49 47 46 45 45 42 41 40 38 37 37 37 37
49 48 47 47 47 46 45 46 46 45 45 44 43 44 43 41 38 38 36 34 34 35
45 43 42 42 40 40 40 40 40 41 42 41 42 43 42 40 36 34 33 33 32 33
43 41 40 39 38 37 36 36 36 35 35 37 39 41 40 37 32 32 32 32 32 32
40 38 37 36 35 35 34 34 33 34 33 33 34 38 37 34 32 31 32 33 34 36
37 36 34 34 33 35 35 33 34 32 33 35 33 37 37 36 36 35 37 38 38 37
39 38 36 35 35 34 34 33 33 33 34 35 37 39 40 40 39 38 37 36 36 37

GFSNIL_sfc_temp_042.txt.gz
Temp
59 58 58 59 59 59 62 65 67 62 61 61 62 64 63 62 62 60 58 58 54 52
57 57 57 58 58 58 59 63 62 60 61 60 62 62 61 61 60 60 58 58 55 52
56 57 57 56 54 54 55 56 56 56 56 58 60 60 59 58 58 56 54 53 52 51
54 56 56 53 53 54 57 58 57 55 54 57 57 57 55 54 54 53 51 50 49 44
52 53 56 52 52 54 57 56 54 54 54 54 54 53 52 51 50 50 47 45 43 42
49 48 50 48 49 50 50 49 48 48 49 49 49 49 47 46 45 45 45 43 42 41
46 45 46 47 47 47 47 46 45 44 43 43 43 43 42 43 41 40 40 40 40 39
45 44 44 44 43 44 45 44 43 42 41 42 43 43 40 40 39 38 37 37 38 37
44 45 43 43 43 40 41 42 43 43 43 42 43 44 43 38 36 36 35 33 33 34
43 41 41 40 39 38 37 37 37 39 40 40 41 43 41 39 34 33 33 32 32 33
41 39 38 37 36 36 36 35 35 34 35 37 39 41 40 38 33 32 32 32 32 32
38 36 36 35 34 35 34 33 33 33 33 33 35 39 38 33 29 30 31 32 33 33
36 36 34 34 33 34 34 32 33 32 33 36 29 40 40 36 32 29 31 33 34 39
38 36 35 34 35 33 33 31 24 29 31 33 31 34 41 41 32 31 31 31 31 31

GFSNIL_sfc_temp_045.txt.gz
Temp
54 54 54 54 54 54 54 56 57 58 61 60 60 61 62 59 59 57 57 57 55 55
52 53 53 52 52 52 52 57 54 55 56 59 60 58 59 60 59 58 56 56 56 54
50 52 52 51 51 51 52 53 52 52 52 54 55 56 57 57 56 56 55 54 54 51
49 50 53 50 49 50 52 51 50 50 50 50 51 52 52 52 53 53 51 50 51 47
47 48 52 50 46 47 47 47 46 47 48 49 50 50 50 49 49 48 46 46 44 42
44 44 43 44 45 45 44 43 43 43 42 43 45 46 46 46 45 44 44 43 42 41
41 41 41 42 42 43 43 42 41 41 41 41 41 40 40 40 40 40 40 40 40 39
43 41 41 40 40 40 41 43 44 42 43 43 43 41 36 36 36 36 37 37 38 38
43 42 41 41 41 41 41 40 40 40 41 39 42 43 41 37 36 35 35 34 34 35
41 40 39 39 38 37 37 37 37 38 39 39 41 42 41 38 34 33 32 33 33 33
39 38 38 37 36 36 36 35 35 35 36 37 40 41 40 38 29 30 31 31 29 31
37 36 36 35 35 35 33 33 33 33 34 34 35 40 39 31 25 26 26 28 30 31
37 36 34 34 33 34 34 32 33 32 27 35 24 42 41 33 29 27 28 29 31 39
37 36 35 34 34 33 26 23 27 30 31 28 30 33 41 40 30 29 29 29 29 30

GFSNIL_sfc_temp_048.txt.gz
Temp
51 51 52 52 51 51 51 52 53 54 55 57 58 59 59 58 58 58 57 57 56 56
49 50 50 50 50 50 50 55 52 52 53 54 55 56 57 58 58 55 55 54 56 54
48 50 50 49 48 49 49 49 49 49 49 50 51 52 53 55 55 54 54 54 54 53
46 48 48 46 46 46 46 45 45 46 46 47 47 48 48 48 48 49 50 49 49 47
44 44 45 43 43 44 43 43 43 43 43 44 44 44 44 45 45 47 45 45 44 42
41 41 41 41 42 43 42 41 41 41 40 40 41 40 40 42 43 42 42 42 42 41
39 39 39 40 40 41 41 40 39 39 39 39 38 38 37 37 36 37 39 39 39 39
42 40 40 39 40 39 39 39 39 39 39 40 42 41 35 35 35 35 36 36 38 39
43 42 41 41 40 40 39 40 40 40 41 41 42 43 41 37 36 35 35 34 34 35
41 40 39 39 38 37 37 37 37 37 39 40 41 42 40 37 34 33 32 31 30 32
39 38 37 37 36 35 35 35 35 35 36 37 40 41 40 37 27 25 23 23 22 23
38 37 36 35 34 34 33 33 33 34 34 34 30 41 39 29 20 22 23 27 28 29
37 36 34 34 33 34 34 33 30 24 21 34 21 42 40 33 29 26 27 28 30 38
37 35 35 34 34 30 29 30 30 31 31 26 29 32 41 39 30 29 29 28 29 30

GFSNIL_sfc_temp_051.txt.gz
Temp
48 49 49 50 50 50 50 51 51 51 52 53 55 56 57 56 56 57 58 57 55 53
47 48 49 48 48 48 48 52 50 50 50 50 52 53 56 58 57 57 56 56 56 54
45 47 46 46 46 46 45 46 46 47 47 47 47 49 50 51 51 53 52 52 52 52
44 45 45 44 43 44 44 43 43 44 44 43 43 44 45 45 46 47 48 47 47 45
43 43 43 42 42 42 41 42 41 41 41 41 41 40 40 41 42 42 41 44 44 42
40 40 39 39 40 41 40 39 39 39 39 38 38 38 38 38 38 41 41 40 39 39
38 38 38 38 39 39 39 38 38 38 38 38 37 36 36 35 35 36 38 38 38 37
40 40 40 41 42 40 38 38 38 39 42 42 42 40 36 37 37 37 36 36 37 38
42 42 41 41 41 40 40 40 40 41 41 40 42 42 40 38 35 35 35 33 33 35
41 40 39 39 38 38 37 38 37 38 39 39 40 41 39 37 34 32 29 26 26 32
40 38 38 37 36 36 36 35 35 35 35 34 39 41 39 35 24 24 26 24 19 20
38 37 36 35 34 34 34 34 33 33 32 27 27 40 39 29 20 22 22 26 27 29
38 36 34 34 33 34 34 32 28 24 20 34 21 41 39 32 29 26 27 28 29 36
37 35 35 34 34 33 32 31 28 26 24 25 29 30 41 39 30 29 29 28 29 30

GFSNIL_sfc_temp_054.txt.gz
Temp
48 48 49 49 49 49 49 49 50 50 50 51 52 54 58 58 58 58 57 57 56 56
46 47 48 47 47 47 46 51 47 47 47 48 49 50 56 56 55 56 55 55 55 54
44 45 45 45 44 44 44 44 44 44 44 44 45 46 48 51 52 52 50 51 49 48
42 43 43 42 41 41 42 42 42 42 42 41 41 42 43 43 45 47 46 45 44 44
41 41 40 40 40 40 39 40 40 40 39 39 39 38 39 39 40 40 39 40 42 41
38 38 37 38 38 39 38 38 38 38 37 37 37 36 36 36 36 37 37 36 36 36
37 37 37 38 38 38 38 37 37 38 40 38 35 36 37 37 38 38 39 39 39 38
38 39 39 42 41 39 38 37 41 41 42 42 41 39 38 38 38 37 36 36 38 39
42 42 41 41 41 40 40 40 41 41 41 40 41 42 41 38 36 35 33 32 32 35
41 40 39 39 39 38 37 38 38 38 39 39 40 41 39 37 33 27 25 25 25 30
40 38 38 38 37 36 36 36 36 35 32 34 39 41 38 35 21 25 25 20 17 19
39 37 37 35 35 35 34 34 33 31 27 26 26 40 38 28 19 22 22 26 27 29
38 37 35 34 33 34 34 32 30 24 22 33 21 40 39 32 29 26 27 27 29 37
37 36 35 34 34 33 30 25 21 21 22 24 28 29 41 38 30 30 29 29 29 30

GFSNIL_sfc_temp_057.txt.gz
Temp
54 55 55 55 55 55 55 55 54 54 55 55 56 57 60 60 60 59 58 58 59 58
53 53 53 52 53 53 52 54 52 52 52 52 53 54 58 58 57 55 54 55 55 55
50 50 50 51 50 49 49 49 49 49 49 49 49 51 53 54 54 53 52 53 53 52
49 49 48 48 47 47 47 47 47 46 46 46 46 48 49 49 49 48 48 48 49 47
47 47 46 46 45 46 45 45 45 45 44 44 44 45 46 45 45 46 45 45 45 44
44 44 44 44 44 44 44 44 44 44 43 42 41 42 42 42 42 42 42 42 43 42
42 42 42 42 43 43 43 42 43 44 43 40 39 40 40 40 40 41 41 41 42 42
42 42 43 43 42 42 42 43 44 43 42 43 41 41 40 40 40 39 39 39 40 41
43 43 43 43 42 42 41 42 42 42 42 41 42 43 42 40 38 37 36 36 36 38
43 41 41 41 40 39 39 40 39 40 40 40 41 41 40 38 35 32 31 32 33 34
41 40 39 38 38 37 38 37 37 36 37 39 41 41 39 35 30 29 29 30 29 33
40 38 38 37 36 36 36 35 34 34 34 33 35 40 38 32 30 31 32 34 35 37
40 38 36 36 34 36 36 33 33 30 29 35 31 40 39 35 35 34 34 35 35 37
39 37 36 35 35 34 33 31 29 30 29 31 34 36 40 38 35 35 34 34 34 35

GFSNIL_sfc_temp_060.txt.gz
Temp
64 66 66 64 65 65 65 64 62 61 62 62 62 63 64 64 63 62 61 60 60 60
64 63 63 61 62 62 61 61 60 59 59 59 59 60 62 63 62 59 57 56 55 53
61 60 60 60 59 59 59 58 58 57 57 57 57 58 59 57 57 57 56 57 54 53
59 58 58 59 58 58 57 56 55 54 55 54 55 56 57 53 53 53 52 52 52 52
57 56 57 57 56 56 55 54 53 53 53 53 53 54 55 53 54 54 53 52 52 51
55 55 55 54 54 53 53 53 52 52 51 50 50 51 51 51 50 50 50 50 50 48
53 53 53 52 52 51 51 51 51 50 48 46 46 45 45 45 46 45 45 46 46 47
51 50 49 48 49 49 49 49 48 46 45 45 44 44 43 43 43 43 42 43 43 43
49 49 48 47 45 45 45 45 45 44 45 44 44 43 43 43 43 43 42 41 41 42
49 46 45 44 42 42 41 42 42 42 43 42 42 43 41 40 40 37 35 35 36 38
46 44 42 41 40 39 40 40 39 40 41 41 42 41 39 37 34 33 33 34 34 36
45 42 40 38 38 38 37 37 37 38 39 37 39 40 39 36 36 35 36 38 40 42
44 41 38 38 36 37 37 34 37 34 34 38 38 40 39 39 41 38 40 40 40 38
42 40 38 36 36 36 35 34 34 33 34 35 39 42 40 39 40 40 39 40 39 40

GFSNIL_sfc_temp_063.txt.gz
Temp
68 68 68 67 67 67 67 67 65 63 63 63 63 63 63 63 63 63 62 62 62 61
67 66 66 65 65 65 64 63 62 61 61 61 61 61 61 61 62 60 59 55 55 53
64 64 63 64 63 62 62 60 60 59 59 59 59 59 60 58 58 57 56 56 54 52
62 61 62 62 61 60 60 59 58 57 57 57 57 58 58 55 55 54 53 53 52 52
61 60 60 60 59 59 58 57 56 55 55 55 55 55 56 55 55 55 54 54 53 52
59 58 58 58 57 56 56 55 55 54 53 52 51 52 53 53 53 52 52 51 50 50
57 57 57 56 55 54 54 54 53 52 51 49 49 48 47 48 48 47 47 47 47 47
54 53 53 52 52 52 52 52 50 48 47 47 46 46 44 45 45 44 44 44 43 43
53 52 50 50 49 47 47 47 46 46 46 45 46 43 44 44 43 44 43 41 41 42
52 50 49 48 47 44 43 43 43 43 44 43 44 44 43 44 41 37 36 35 36 38
50 48 47 45 42 41 41 40 40 40 42 42 42 42 41 39 35 33 33 34 33 35
49 46 44 42 40 39 38 38 37 39 40 37 39 41 40 37 35 34 34 36 40 41
48 45 42 39 36 38 37 35 36 34 35 39 37 41 40 39 38 36 38 38 39 39
46 44 41 37 37 36 35 34 34 34 34 36 39 41 41 40 39 38 37 37 37 38

GFSNIL_sfc_temp_066.txt.gz
Temp
62 60 60 61 60 58 57 56 56 56 56 56 57 56 57 56 56 57 56 55 55 56
61 60 59 59 57 55 55 57 54 54 54 54 54 54 55 54 54 55 54 54 54 53
60 59 58 57 55 55 53 54 52 52 52 52 52 53 52 52 53 54 53 53 52 51
55 56 56 56 54 53 53 52 51 51 50 50 50 50 50 53 53 52 51 51 50 50
54 53 53 53 53 53 52 51 50 50 49 49 49 48 48 48 49 52 51 51 50 49
52 52 52 52 51 51 50 49 49 48 47 47 46 45 45 46 46 45 44 45 44 43
49 51 50 51 50 50 50 48 48 47 45 45 44 43 43 44 42 42 43 42 41 41
47 47 48 47 47 48 47 46 46 44 45 46 45 45 43 44 44 43 42 41 42 41
47 46 44 44 44 43 43 43 43 44 45 44 46 44 45 44 42 42 41 39 37 38
47 45 44 46 46 40 39 42 42 42 43 42 42 44 44 44 39 36 35 34 33 35
45 43 43 44 42 39 40 40 39 40 41 40 41 43 42 40 34 33 32 32 31 30
44 42 41 41 38 38 38 38 37 38 38 36 37 41 41 34 30 31 31 31 34 36
43 41 41 41 36 38 37 35 36 34 34 39 34 41 41 36 32 31 31 33 35 40
42 42 40 36 36 36 35 34 33 33 33 32 35 36 41 41 35 34 33 32 32 33

GFSNIL_sfc_temp_069.txt.gz
Temp
62 60 59 59 58 57 58 55 56 56 56 54 55 54 54 53 53 54 54 54 53 55
59 59 57 58 58 56 55 56 54 54 54 52 52 52 52 51 52 52 52 54 52 53
58 59 58 55 55 55 54 54 52 52 51 50 50 50 50 50 51 50 50 51 51 51
55 55 55 53 54 52 53 52 52 50 49 49 48 48 47 48 49 49 48 48 49 50
52 53 52 52 52 53 50 51 50 49 48 48 47 46 46 47 47 48 49 49 49 49
50 50 50 50 51 51 49 47 48 48 47 46 45 44 43 44 44 43 43 45 45 45
47 47 46 47 48 48 48 46 46 45 45 44 43 43 42 42 40 40 40 40 40 40
46 45 45 45 45 45 45 44 43 42 43 43 43 44 42 44 43 43 41 42 42 41
45 44 43 42 42 41 41 41 41 41 44 44 45 45 45 44 42 42 40 39 38 39
44 43 42 42 40 39 38 38 38 40 43 42 42 45 45 45 40 37 36 34 33 35
44 42 41 40 40 41 37 37 36 38 41 40 41 44 43 41 35 34 33 32 29 28
43 41 40 39 38 39 36 36 38 39 39 37 38 42 42 35 31 29 28 30 33 34
42 41 38 38 38 37 37 36 36 34 35 39 35 42 41 35 31 29 30 31 33 40
41 39 38 38 37 35 35 35 34 34 34 35 36 36 42 40 33 32 32 32 32 33

GFSNIL_sfc_temp_072.txt.gz
Temp
59 57 58 59 58 58 58 58 58 56 55 54 55 55 54 53 52 52 52 52 52 53
59 57 56 56 56 56 54 56 56 55 55 53 53 52 51 50 50 51 51 51 52 53
55 56 58 59 58 56 54 54 52 51 50 51 51 51 50 48 49 49 49 49 49 48
54 55 54 53 53 53 52 51 50 50 49 49 49 48 47 47 48 48 47 47 47 47
52 53 50 51 52 51 51 50 51 48 48 47 47 46 46 46 47 47 46 47 46 46
48 48 47 47 48 48 48 48 48 48 47 45 44 44 44 44 44 43 43 44 47 46
46 46 46 46 46 46 46 45 44 44 43 44 42 42 41 41 40 40 40 40 40 41
45 45 44 44 44 44 44 43 43 41 41 41 42 43 40 41 41 42 41 42 42 41
44 43 43 42 41 41 40 40 40 40 40 40 44 47 46 45 42 42 41 39 39 40
43 42 41 41 40 39 38 38 38 38 39 39 42 46 46 46 41 39 37 36 35 36
43 41 40 39 38 37 36 36 36 36 37 38 41 45 45 43 36 34 34 34 33 27
42 40 39 38 37 37 36 35 35 36 37 38 38 44 44 38 34 33 33 33 32 32
42 41 39 38 36 36 38 35 36 34 35 39 36 42 42 36 32 31 30 31 33 40
41 40 39 37 35 35 37 36 35 34 34 36 37 38 42 39 31 31 30 30 32 34

GFSNIL_sfc_temp_075.txt.gz
Temp
60 60 61 60 59 58 58 57 58 57 56 55 55 55 54 53 51 51 50 50 50 51
57 57 56 56 56 55 56 56 56 56 55 54 53 52 51 50 50 49 50 50 50 50
54 55 55 54 54 55 55 56 55 54 53 52 52 50 49 48 49 49 49 49 48 47
51 52 52 54 54 52 52 51 52 52 51 50 49 47 46 46 46 47 46 46 46 46
50 51 51 51 52 51 51 50 50 50 48 47 46 45 44 44 45 45 45 46 46 46
47 47 47 48 49 50 49 48 46 46 46 45 44 44 43 43 43 43 42 43 44 44
45 46 45 45 45 45 45 44 43 43 43 42 42 41 40 40 40 39 39 39 40 43
45 44 44 44 43 43 43 43 42 41 40 40 41 42 40 40 39 40 42 42 42 42
44 43 43 42 41 41 41 40 40 39 39 39 42 46 47 45 42 42 42 40 40 41
43 42 41 41 40 39 38 38 37 37 38 38 38 46 47 47 42 40 38 37 36 37
42 41 40 39 38 37 36 36 36 36 37 37 39 45 46 46 37 35 34 34 34 34
42 40 39 38 37 36 35 34 34 35 35 35 35 44 45 39 34 34 34 34 35 35
42 41 39 38 36 35 35 35 33 34 34 38 36 43 44 40 35 33 33 33 34 39
41 40 39 37 35 35 35 34 35 35 35 35 38 38 43 42 31 31 32 31 30 31

GFSNIL_sfc_temp_078.txt.gz
Temp
60 60 60 60 59 60 60 59 58 57 56 56 56 56 55 54 52 52 51 51 50 51
55 57 57 57 58 58 57 58 57 57 56 55 54 53 53 51 50 50 49 49 49 49
54 54 55 55 54 54 54 54 53 53 53 52 52 51 50 48 48 48 48 48 48 48
52 52 52 52 52 52 52 53 52 53 51 50 50 49 49 47 47 47 46 46 45 46
49 49 49 49 50 51 50 50 50 50 49 48 48 46 45 44 44 44 44 45 44 44
47 47 47 47 48 48 47 46 47 47 46 45 44 43 42 42 42 41 41 41 41 42
45 46 45 45 45 45 45 44 43 43 43 42 41 41 40 40 39 38 39 39 39 41
44 44 44 44 43 43 43 42 42 41 40 40 40 41 39 40 39 38 40 42 42 42
44 43 43 42 41 41 40 40 39 39 39 39 42 46 47 43 39 40 42 41 40 41
43 42 41 41 40 39 38 38 38 37 38 38 38 46 47 47 40 38 39 38 37 37
42 41 40 39 38 37 36 36 36 36 36 36 38 45 46 47 37 34 34 35 35 35
42 40 39 38 37 36 35 34 35 35 35 35 35 44 46 39 34 34 34 35 36 36
41 41 40 39 36 35 35 35 33 34 34 37 33 42 45 40 35 34 34 34 35 38
40 40 41 37 35 34 34 33 33 34 35 36 36 36 44 44 35 35 33 33 33 34

GFSNIL_sfc_temp_081.txt.gz
Temp
62 62 63 63 62 63 63 63 63 62 60 58 59 59 59 57 57 57 57 57 57 57
60 61 61 61 62 62 62 60 60 60 58 58 58 56 55 55 55 55 55 55 56 55
58 58 59 59 59 59 60 59 58 57 57 56 55 56 54 54 54 55 53 54 54 54
56 56 57 57 57 57 57 57 57 56 55 54 54 54 54 53 51 52 52 52 52 51
54 55 56 56 56 56 56 56 57 56 54 53 53 52 52 51 51 51 50 50 50 50
52 53 53 53 53 53 53 53 53 53 52 50 49 48 48 47 46 47 47 47 47 48
50 51 51 50 50 50 49 49 49 49 48 47 46 46 46 46 46 45 45 45 46 47
49 49 49 49 49 48 48 48 48 47 46 46 46 45 45 45 45 45 45 46 46 46
48 48 47 47 46 46 46 46 46 46 46 45 46 46 46 46 46 45 46 45 44 44
46 46 46 46 45 45 44 44 44 44 44 44 46 47 48 46 45 43 42 41 40 40
45 45 45 44 44 43 43 43 42 42 42 43 43 47 47 47 43 39 37 37 37 37
44 43 43 43 42 42 41 40 40 40 40 40 41 45 46 43 37 37 37 39 39 39
43 42 42 43 40 40 40 38 39 37 37 40 39 43 45 42 39 36 37 38 38 40
42 42 42 41 40 39 39 38 36 36 36 37 39 41 45 44 39 39 36 37 36 36

GFSNIL_sfc_temp_084.txt.gz
Temp
66 66 66 67 67 66 65 65 66 64 64 65 66 65 64 62 62 61 61 61 61 62
65 66 66 66 67 66 67 66 65 64 65 64 63 62 62 60 57 58 57 59 59 59
63 63 65 65 64 66 68 67 67 64 64 62 62 63 62 59 58 58 59 58 59 59
62 62 63 64 64 63 64 64 63 63 61 61 62 62 61 59 57 57 58 57 58 58
61 61 62 62 61 63 64 63 62 61 60 60 60 60 58 56 56 57 56 56 56 56
62 61 61 60 60 60 59 60 61 60 59 58 57 58 58 56 55 55 56 55 54 55
59 59 60 60 59 59 59 58 58 58 57 56 56 56 55 55 54 54 54 52 53 54
57 58 58 58 58 57 57 57 57 56 55 53 53 53 53 52 53 52 52 51 52 52
55 56 55 56 57 56 55 55 55 54 54 53 52 48 49 52 53 53 52 51 51 50
53 52 53 54 54 53 53 53 52 53 53 51 53 48 48 48 51 50 49 48 47 47
50 50 51 52 52 52 52 51 50 50 51 51 51 48 48 47 49 45 40 40 41 44
49 48 49 49 50 52 50 49 49 50 49 48 48 47 47 47 43 41 39 40 45 46
48 48 47 48 48 49 49 47 47 44 45 47 47 46 47 46 44 39 40 45 46 42
48 48 48 47 47 45 46 45 44 42 40 45 46 48 46 46 44 42 40 41 42 44

GFSNIL_sfc_temp_087.txt.gz
Temp
64 64 64 65 64 65 66 66 67 65 64 64 63 62 62 61 61 61 60 61 62 61
64 66 66 65 66 66 67 67 68 67 65 65 63 62 62 60 61 61 61 60 59 58
63 64 65 65 66 67 67 67 64 64 65 63 62 61 61 59 59 59 58 59 58 57
62 63 64 65 66 66 67 67 65 64 62 61 60 61 60 60 59 59 58 58 58 57
63 62 63 63 63 64 64 64 64 64 61 60 59 61 61 60 59 59 57 57 56 57
61 61 62 62 62 62 61 62 62 61 59 59 59 60 61 58 57 57 57 57 55 55
58 59 60 61 60 60 60 59 60 60 60 58 57 57 56 55 55 55 55 54 54 54
57 58 58 59 59 59 58 58 59 58 57 55 54 54 53 53 53 52 52 52 52 52
56 56 56 57 58 58 57 57 56 55 55 53 53 51 52 53 52 52 52 50 50 50
54 53 53 54 55 56 56 56 54 54 54 53 53 49 50 50 52 50 49 47 47 47
51 50 51 52 52 53 54 54 53 52 53 52 52 48 48 48 49 47 43 42 43 44
49 49 49 49 49 51 51 51 51 51 51 50 50 47 47 46 43 40 39 41 42 45
48 48 46 47 47 47 48 49 49 47 47 49 48 47 47 47 45 41 41 42 44 45
47 46 47 46 46 45 45 45 46 45 44 46 47 48 47 47 46 42 40 42 43 44

GFSNIL_sfc_temp_090.txt.gz
Temp
61 61 61 60 60 61 61 62 63 62 62 63 62 63 62 61 60 60 59 58 59 58
61 61 61 62 63 63 62 63 63 62 62 61 62 62 62 61 60 59 59 59 59 58
58 59 59 59 61 62 63 63 63 62 63 62 62 63 61 61 60 59 58 57 56 55
57 57 58 58 59 60 60 61 61 61 60 61 63 62 60 59 57 57 56 54 55 54
56 56 56 56 57 58 57 58 59 61 60 60 59 59 59 57 57 56 55 54 53 53
53 53 53 54 55 56 55 55 56 57 58 57 56 57 57 57 56 55 53 53 52 52
50 51 51 53 53 54 54 53 53 54 56 56 55 55 55 54 53 52 51 51 51 51
49 50 50 50 51 52 52 52 52 52 52 53 53 53 52 52 51 51 50 50 50 50
49 48 48 48 48 49 50 50 50 49 49 48 51 52 52 51 50 50 50 48 48 47
47 46 46 47 47 46 46 48 47 47 48 47 47 51 51 51 49 48 47 45 45 45
44 44 44 44 43 44 44 45 46 46 46 46 47 50 50 50 44 43 41 40 41 41
43 42 42 44 45 46 45 45 47 46 45 44 44 48 48 46 39 38 39 40 41 41
42 41 41 44 43 44 45 44 45 45 45 45 44 47 47 45 40 39 39 40 41 44
41 40 39 39 40 43 43 43 42 43 43 44 45 45 48 47 42 41 39 38 38 41

GFSNIL_sfc_temp_093.txt.gz
Temp
60 60 59 58 59 60 61 61 62 62 61 62 63 62 61 61 60 60 60 60 59 59
56 60 59 60 59 59 61 61 61 61 61 62 62 61 61 60 60 60 60 59 59 59
55 57 57 58 59 61 62 62 62 61 61 61 61 61 61 60 60 59 59 58 58 58
55 56 57 56 57 57 59 59 59 60 61 61 61 61 61 60 60 59 59 58 57 57
53 53 53 53 54 55 54 55 56 57 58 59 60 60 60 60 59 58 57 56 56 55
50 50 50 51 52 53 53 53 53 54 55 56 57 57 58 59 57 57 57 56 56 55
47 48 48 49 50 51 51 51 51 51 52 53 54 54 55 55 54 54 53 53 54 53
46 47 47 47 48 48 49 49 50 50 50 50 50 51 52 52 52 51 51 51 52 52
45 45 44 45 45 45 45 46 47 47 48 47 49 51 51 51 50 50 50 49 49 49
43 43 43 43 43 43 43 43 43 44 45 45 46 50 51 51 49 48 48 46 46 45
41 41 41 41 41 41 45 45 44 44 46 46 46 49 50 50 44 44 44 43 43 44
39 39 39 39 38 40 42 43 44 45 45 45 46 47 49 47 40 39 39 40 43 44
39 38 37 37 37 38 39 42 44 43 44 45 44 47 47 47 42 39 40 41 40 44
38 37 36 35 35 35 35 38 38 42 42 43 44 45 47 48 43 42 40 40 40 41

GFSNIL_sfc_temp_096.txt.gz
Temp
57 60 59 59 60 60 60 60 61 61 61 61 62 62 62 61 61 61 61 61 59 59
55 57 59 59 59 59 60 60 60 60 60 61 61 62 62 61 60 60 60 60 60 59
52 54 55 57 57 58 59 60 60 60 60 60 61 61 61 60 60 59 59 59 59 59
50 52 53 54 54 54 56 57 57 58 59 60 60 60 60 60 60 59 59 58 58 58
51 51 51 51 52 53 53 54 53 54 56 58 59 60 60 60 60 59 58 58 57 57
47 48 47 48 49 50 50 51 51 52 53 53 55 57 58 59 59 59 59 59 57 58
44 45 46 47 47 48 48 48 48 49 50 51 51 52 53 55 55 56 57 57 57 57
43 44 44 44 45 45 45 45 46 47 47 48 48 50 50 52 52 52 52 52 53 53
42 43 42 42 42 42 42 42 43 44 44 44 47 50 50 50 50 51 50 50 50 51
40 40 40 40 40 40 39 40 40 41 42 43 44 49 50 50 47 48 48 47 47 47
38 38 38 38 37 37 38 39 40 40 42 43 46 48 49 49 45 43 43 44 45 45
37 36 36 36 35 36 36 37 38 40 40 41 44 46 47 47 43 40 40 40 42 45
37 36 35 35 35 35 35 36 38 38 38 43 42 45 46 46 43 41 40 41 39 45
36 34 34 33 33 33 32 33 32 35 35 37 42 44 46 46 44 42 41 41 40 41

GFSNIL_sfc_temp_099.txt.gz
Temp
55 57 60 59 60 61 60 61 61 62 62 62 62 62 60 60 60 60 60 60 60 60
53 54 54 56 58 58 59 60 60 60 60 60 61 61 60 60 60 60 60 61 60 60
50 51 52 53 52 54 55 57 59 59 59 59 60 60 60 60 60 60 60 60 59 60
50 50 50 50 50 51 53 54 54 55 57 58 59 60 60 60 60 59 59 59 59 59
49 49 49 49 49 50 50 52 52 53 54 55 56 58 59 59 59 59 58 58 58 58
45 46 46 46 47 48 47 48 49 49 50 51 52 52 54 56 58 59 59 59 58 59
42 43 44 45 45 45 45 45 45 46 47 48 48 49 50 51 52 54 55 57 58 58
41 42 42 42 42 43 43 43 43 43 43 44 46 48 48 48 49 50 52 53 53 54
39 39 39 39 39 40 40 41 42 42 42 42 45 48 49 49 46 47 49 50 51 52
38 37 37 37 37 36 36 37 37 39 40 41 42 47 48 48 47 44 45 46 47 48
37 36 36 35 35 34 35 35 35 36 38 38 42 46 46 47 44 44 43 42 43 45
36 35 35 34 33 33 33 33 34 36 36 36 37 44 46 45 42 41 41 43 43 44
35 34 33 32 32 32 32 34 34 34 34 37 35 41 45 45 43 42 43 44 42 44
33 32 32 31 31 30 29 30 30 31 31 32 35 35 43 44 43 41 41 42 42 42

GFSNIL_sfc_temp_102.txt.gz
Temp
54 54 55 55 58 59 59 60 62 62 62 62 62 62 61 60 60 60 60 60 60 61
51 51 52 53 53 54 55 56 57 60 60 60 61 62 61 61 59 60 60 60 60 59
49 50 50 50 50 51 52 53 53 54 56 58 59 60 60 60 60 59 60 59 59 59
48 48 48 48 48 49 50 51 51 52 53 54 55 56 58 59 59 59 59 59 59 59
47 47 47 46 47 48 47 49 49 50 50 51 52 53 54 54 56 58 58 58 58 58
44 44 44 45 45 46 46 46 46 46 46 47 48 49 50 51 51 53 54 57 58 58
40 41 42 42 43 44 44 43 43 44 44 44 45 47 47 48 48 49 50 52 53 55
40 40 40 40 39 40 40 40 41 41 41 43 44 46 45 46 46 46 47 49 50 52
38 38 36 37 38 38 38 37 38 39 39 39 43 46 47 47 44 45 45 45 47 48
35 35 35 35 34 34 33 34 34 35 36 37 38 45 46 47 45 43 43 42 43 44
35 34 34 34 33 32 32 32 32 33 34 35 38 43 44 45 42 42 42 40 41 43
33 32 32 32 31 31 31 31 31 33 33 32 33 41 43 42 38 40 42 45 42 41
32 31 29 29 28 29 30 30 31 31 31 34 32 38 42 41 38 36 39 42 44 46
30 29 29 28 29 28 30 30 28 29 29 30 31 32 40 42 37 35 36 38 40 42

GFSNIL_sfc_temp_105.txt.gz
Temp
53 52 52 52 53 53 53 54 57 57 60 61 62 63 63 62 62 62 61 61 61 61
50 50 49 49 50 51 52 54 54 55 56 56 58 59 61 61 60 61 60 60 61 61
49 49 48 48 48 49 50 50 51 52 53 53 54 54 56 58 60 59 60 60 60 60
47 48 47 46 46 47 48 48 49 50 50 51 51 52 52 54 54 55 58 59 59 59
46 47 46 46 47 47 47 49 49 50 50 50 50 51 50 51 52 51 52 52 56 58
45 45 44 45 46 47 47 47 47 47 47 48 47 48 49 49 49 50 51 50 51 52
43 43 44 44 44 44 45 44 45 45 45 45 46 47 47 48 48 48 49 50 51 51
42 43 41 42 42 42 42 43 43 43 43 44 45 46 46 47 46 46 46 48 49 50
40 40 40 40 39 40 40 40 40 40 40 41 43 44 46 46 45 45 44 43 45 47
38 38 38 38 38 38 37 38 38 38 39 39 40 43 44 45 44 43 43 43 43 44
37 37 37 37 36 37 37 37 37 37 38 38 40 42 43 44 42 41 41 42 44 45
36 35 35 35 34 35 35 35 35 36 36 36 37 40 41 42 40 39 39 41 43 44
35 34 33 34 33 34 34 34 34 34 35 36 36 38 40 41 41 38 39 40 41 43
34 33 32 32 32 31 31 32 31 33 34 34 36 37 39 40 40 39 38 39 39 41

GFSNIL_sfc_temp_108.txt.gz
Temp
55 54 52 52 52 51 52 53 54 55 56 57 58 59 59 61 63 64 62 62 62 62
52 50 49 50 50 50 50 53 52 53 53 54 55 55 57 57 57 60 61 61 62 61
49 50 49 48 48 48 49 50 50 50 51 51 52 53 53 53 54 54 55 57 59 60
47 48 50 51 47 47 49 50 50 50 50 50 50 51 51 51 52 51 52 53 53 54
46 48 48 48 49 50 49 50 51 52 52 53 52 53 51 50 52 50 50 51 51 51
49 49 48 47 49 50 50 50 51 52 51 51 52 52 53 52 52 51 51 51 50 51
46 46 47 48 48 48 49 48 49 49 49 49 50 50 50 50 51 51 50 50 50 51
47 48 48 47 47 47 48 48 48 47 48 48 49 49 46 48 49 49 49 50 50 49
47 46 46 45 44 45 44 45 46 46 45 44 47 45 45 45 46 48 47 47 48 49
45 45 44 45 45 45 44 45 44 45 45 45 46 44 44 44 46 46 45 44 45 46
44 43 44 43 43 43 43 42 42 42 43 43 44 43 43 43 45 45 44 44 45 45
42 41 41 41 40 41 40 40 40 41 41 40 42 42 41 42 43 43 43 45 46 45
41 40 39 39 38 39 39 38 39 39 40 40 40 41 41 42 43 42 43 45 45 44
40 39 39 39 38 38 38 38 38 39 40 42 43 43 41 41 42 42 41 42 42 44

GFSNIL_sfc_temp_111.txt.gz
Temp
51 50 50 52 53 52 52 52 53 54 55 55 56 55 56 57 57 57 60 62 63 63
51 50 49 51 51 49 50 52 51 52 52 53 53 53 53 53 53 53 55 55 54 57
51 51 51 50 48 48 49 50 50 51 51 51 52 52 52 52 52 52 52 52 53 54
48 47 48 48 49 49 49 49 49 50 50 51 50 51 51 50 51 50 50 51 50 51
48 49 49 49 49 51 51 53 52 52 52 51 52 51 50 49 51 50 49 49 50 50
50 49 49 49 48 49 49 50 51 51 50 50 51 51 51 51 51 51 51 51 50 50
49 49 48 48 48 48 49 49 49 49 49 49 50 51 48 48 49 49 50 50 50 50
48 49 48 47 47 47 47 47 47 48 48 48 48 49 45 45 46 47 47 48 49 49
48 48 47 47 47 47 46 46 46 46 46 45 47 47 45 45 44 45 45 45 45 46
47 46 46 46 46 45 45 45 44 44 44 43 45 46 45 44 43 43 44 43 43 44
45 44 44 44 43 43 43 42 42 42 42 42 43 44 43 43 42 42 43 43 43 43
44 42 42 41 41 41 40 40 40 41 41 40 41 43 42 41 41 41 42 45 46 45
43 41 40 40 39 40 40 39 40 39 40 42 41 44 43 42 41 40 42 44 45 45
41 40 40 39 39 38 38 39 38 39 41 42 43 43 43 42 41 40 39 40 41 43

GFSNIL_sfc_temp_114.txt.gz
Temp
47 47 47 46 46 46 47 47 50 51 52 52 53 54 54 54 53 53 54 54 54 55
48 47 46 46 46 46 47 50 50 50 51 51 52 52 52 51 51 52 51 52 52 52
47 47 47 48 46 46 45 46 47 48 50 50 50 51 50 50 51 50 50 51 50 51
46 47 47 46 47 47 48 48 48 49 49 49 49 50 49 49 49 49 49 49 49 50
47 48 47 47 46 48 47 48 47 46 46 48 48 48 48 47 48 48 47 47 47 47
46 43 42 44 46 46 46 46 46 45 45 45 45 46 46 46 45 45 47 47 47 47
42 42 41 42 42 42 42 42 42 43 45 45 46 46 44 44 43 44 45 45 45 45
41 41 40 40 41 43 43 43 43 43 43 43 44 47 43 42 41 41 42 43 45 44
41 40 39 39 38 39 38 38 39 38 38 37 43 45 46 44 40 40 40 40 41 42
40 39 38 38 37 36 35 35 35 35 36 36 36 44 45 44 39 38 37 38 38 40
39 37 37 36 35 34 34 33 33 33 34 34 38 43 43 43 37 36 36 37 37 37
38 36 35 33 32 32 32 31 32 34 33 33 34 42 43 41 35 35 35 39 39 39
38 37 35 34 33 33 34 34 35 35 35 37 36 41 44 42 38 35 36 37 38 42
35 34 34 34 34 34 33 34 33 33 34 35 37 36 43 43 38 36 35 35 35 37

GFSNIL_sfc_temp_117.txt.gz
Temp
47 45 44 44 45 44 44 45 46 46 47 49 50 52 53 52 52 53 52 51 52 53
46 46 44 45 46 45 45 48 47 48 49 49 50 50 49 50 50 51 50 50 50 50
47 47 46 47 45 46 47 48 48 48 48 49 49 49 48 46 46 46 47 49 49 50
46 46 46 46 46 43 44 46 46 46 46 46 47 46 46 46 47 47 47 46 47 47
43 45 45 45 45 46 46 47 47 46 44 44 43 42 41 41 43 42 42 45 45 45
39 38 38 38 38 39 39 40 41 42 41 41 41 41 41 40 41 40 41 43 43 43
37 37 37 37 38 38 38 38 38 38 39 39 40 42 41 40 39 39 40 42 43 43
38 38 37 37 36 37 37 36 37 37 37 37 40 43 40 40 40 40 40 41 41 41
39 38 37 36 35 35 34 34 34 34 34 34 40 43 44 42 37 37 37 37 39 40
39 38 37 37 36 34 32 32 31 31 32 32 33 43 44 44 36 35 35 35 36 37
37 35 35 34 32 32 33 33 33 32 32 32 35 42 43 44 35 34 34 34 35 34
36 34 33 31 30 31 30 30 31 33 34 34 35 41 43 42 35 34 33 36 36 37
34 33 31 30 29 30 30 31 31 32 32 36 33 40 43 42 37 35 36 37 38 40
33 31 31 30 29 29 28 29 28 30 30 31 34 33 41 41 37 35 35 35 35 36